Location: Lane
(33.5226°N, 79.8788°W)
Time: 09:03:03
(UTC+00:00)

SR - Pass Details

Date: 05 October 2022
Orbit: 577 x 874 km, 66.7° (Epoch: 07 December)

Event Time Altitude Azimuth Distance (km) Brightness Sun altitude
Rises 11:57:45 0° 317° (NW) 3,216 ? 7.6°
Reaches altitude 10° 12:00:46 10° 301° (WNW) 2,227 ? 8.2°
Maximum altitude 12:04:22 20° 255° (WSW) 1,586 ? 9.0°
Drops below altitude 10° 12:07:46 10° 209° (SSW) 2,078 ? 9.7°
Sets 12:10:29 0° 192° (SSW) 2,932 ? 10.2°
